Burlington, WA
on Thursday, November 15, 2012

Thursday
Previous Day Next Day
Daily Summary
 ActualAverage (KBLI)Record (KBLI)
Temperature
Mean Temperature °F / °C 43°F / 6°C  
Max Temperature 46°F / 8°C 50°F / 10°C 65°F / 18°C (2004)
Min Temperature 35°F / 2°C 37°F / 3°C 3°F / -16°C (1955)
Degree Days
Heating Degree Days 24 22  
Month to date heating degree days 301  
Cooling Degree Days 0 0  
Month to date cooling degree days 0  
Year to date cooling degree days 42  
Moisture
Dew Point 40°F / 4°C   
Average Humidity 100    
Maximum Humidity 100    
Minimum Humidity 93    
Precipitation
Precipitation 0.00 in / 0.00 cm 0.21 in / 5.33 cm 0.87 in / 2.21 cm (2013)
Month to date precipitation 2.94  
Year to date precipitation 28.75  
Wind
Wind Speed 4 mph / 6 km/h   
Max Wind Speed 12 mph / 19 km/h   
Max Gust Speed mph / km/h   
Visibility 4 miles / 7 kilometers   
Events     

Key: T is trace of precipitation, MM is missing value
Source: NWS Daily Summary
Time(PST)TemperatureDew PointHumidity Pressure Visibility Wind DirectionWind SpeedGust SpeedPrecipitationEvents Conditions
12:15 AM 42.8°F / 6.0°C 42.8°F / 6.0°C 100% 30.31 in / 1026.3 hPa 0.2 miles / 0.4 kilometers Calm Calm - 0.00 in / 0.0 cm   Overcast
12:35 AM 42.8°F / 6.0°C 42.8°F / 6.0°C 100% 30.30 in / 1026.0 hPa 0.2 miles / 0.4 kilometers Calm Calm - 0.00 in / 0.0 cm   Overcast
12:55 AM 42.8°F / 6.0°C 42.8°F / 6.0°C 100% 30.29 in / 1025.6 hPa 0.2 miles / 0.4 kilometers NNW 3.5 mph / 5.6 km/h - 0.00 in / 0.0 cm   Overcast
1:15 AM 39.2°F / 4.0°C 39.2°F / 4.0°C 100% 30.28 in / 1025.3 hPa 0.2 miles / 0.4 kilometers NW 4.6 mph / 7.4 km/h - 0.00 in / 0.0 cm   Overcast
1:35 AM 39.2°F / 4.0°C 39.2°F / 4.0°C 100% 30.28 in / 1025.3 hPa 0.2 miles / 0.4 kilometers Calm Calm - 0.00 in / 0.0 cm   Overcast
1:55 AM 39.2°F / 4.0°C 39.2°F / 4.0°C 100% 30.28 in / 1025.3 hPa 2.5 miles / 4.0 kilometers North 5.8 mph / 9.3 km/h - 0.00 in / 0.0 cm   Scattered Clouds
2:15 AM 39.2°F / 4.0°C 39.2°F / 4.0°C 100% 30.27 in / 1024.9 hPa 9.0 miles / 14.5 kilometers NNE 4.6 mph / 7.4 km/h - 0.00 in / 0.0 cm   Clear
2:35 AM 39.2°F / 4.0°C 39.2°F / 4.0°C 100% 30.27 in / 1024.9 hPa 10.0 miles / 16.1 kilometers NNE 5.8 mph / 9.3 km/h - 0.00 in / 0.0 cm   Clear
2:55 AM 39.2°F / 4.0°C 39.2°F / 4.0°C 100% 30.26 in / 1024.6 hPa 10.0 miles / 16.1 kilometers NNE 6.9 mph / 11.1 km/h - 0.00 in / 0.0 cm   Clear
3:15 AM 39.2°F / 4.0°C 39.2°F / 4.0°C 100% 30.25 in / 1024.3 hPa 10.0 miles / 16.1 kilometers NNE 5.8 mph / 9.3 km/h - 0.00 in / 0.0 cm   Clear
3:35 AM 39.2°F / 4.0°C 39.2°F / 4.0°C 100% 30.25 in / 1024.3 hPa 10.0 miles / 16.1 kilometers North 3.5 mph / 5.6 km/h - 0.00 in / 0.0 cm   Clear
3:55 AM 35.6°F / 2.0°C 35.6°F / 2.0°C 100% 30.24 in / 1023.9 hPa 10.0 miles / 16.1 kilometers NW 5.8 mph / 9.3 km/h - 0.00 in / 0.0 cm   Clear
4:15 AM 35.6°F / 2.0°C 35.6°F / 2.0°C 100% 30.24 in / 1023.9 hPa 8.0 miles / 12.9 kilometers NW 5.8 mph / 9.3 km/h - 0.00 in / 0.0 cm   Clear
4:35 AM 35.6°F / 2.0°C 35.6°F / 2.0°C 100% 30.23 in / 1023.6 hPa 4.0 miles / 6.4 kilometers NW 8.1 mph / 13.0 km/h - 0.00 in / 0.0 cm   Clear
4:55 AM 37.4°F / 3.0°C 37.4°F / 3.0°C 100% 30.23 in / 1023.6 hPa 0.2 miles / 0.4 kilometers NW 5.8 mph / 9.3 km/h - 0.00 in / 0.0 cm   Overcast
5:15 AM 37.4°F / 3.0°C 37.4°F / 3.0°C 100% 30.22 in / 1023.2 hPa 0.2 miles / 0.4 kilometers NW 4.6 mph / 7.4 km/h - 0.00 in / 0.0 cm   Overcast
5:35 AM 37.4°F / 3.0°C 37.4°F / 3.0°C 100% 30.21 in / 1022.9 hPa 0.2 miles / 0.4 kilometers NNW 3.5 mph / 5.6 km/h - 0.00 in / 0.0 cm   Overcast
5:55 AM 37.4°F / 3.0°C 37.4°F / 3.0°C 100% 30.21 in / 1022.9 hPa 0.2 miles / 0.4 kilometers Calm Calm - 0.00 in / 0.0 cm   Overcast
6:15 AM 39.2°F / 4.0°C 39.2°F / 4.0°C 100% 30.20 in / 1022.6 hPa 0.2 miles / 0.4 kilometers Calm Calm - 0.00 in / 0.0 cm   Overcast
6:35 AM 39.2°F / 4.0°C 39.2°F / 4.0°C 100% 30.20 in / 1022.6 hPa 0.2 miles / 0.4 kilometers NW 3.5 mph / 5.6 km/h - 0.00 in / 0.0 cm   Overcast
6:55 AM 39.2°F / 4.0°C 39.2°F / 4.0°C 100% 30.19 in / 1022.2 hPa 0.2 miles / 0.4 kilometers NW 5.8 mph / 9.3 km/h - 0.00 in / 0.0 cm   Overcast
7:15 AM 39.2°F / 4.0°C 39.2°F / 4.0°C 100% 30.19 in / 1022.2 hPa 0.2 miles / 0.4 kilometers NW 5.8 mph / 9.3 km/h - 0.00 in / 0.0 cm   Overcast
7:35 AM 37.4°F / 3.0°C 37.4°F / 3.0°C 100% 30.19 in / 1022.2 hPa 0.2 miles / 0.4 kilometers NW 5.8 mph / 9.3 km/h - 0.00 in / 0.0 cm   Overcast
7:55 AM 37.4°F / 3.0°C 37.4°F / 3.0°C 100% 30.19 in / 1022.2 hPa 0.2 miles / 0.4 kilometers NE 4.6 mph / 7.4 km/h - 0.00 in / 0.0 cm   Overcast
8:15 AM 39.2°F / 4.0°C 39.2°F / 4.0°C 100% 30.18 in / 1021.9 hPa 8.0 miles / 12.9 kilometers North 3.5 mph / 5.6 km/h - 0.00 in / 0.0 cm   Scattered Clouds
8:35 AM 39.2°F / 4.0°C 39.2°F / 4.0°C 100% 30.18 in / 1021.9 hPa 5.0 miles / 8.0 kilometers Calm Calm - 0.00 in / 0.0 cm   Clear
9:15 AM 39.2°F / 4.0°C 39.2°F / 4.0°C 100% 30.16 in / 1021.2 hPa 10.0 miles / 16.1 kilometers NE 8.1 mph / 13.0 km/h - 0.00 in / 0.0 cm   Clear
9:35 AM 39.2°F / 4.0°C 39.2°F / 4.0°C 100% 30.16 in / 1021.2 hPa 10.0 miles / 16.1 kilometers NE 6.9 mph / 11.1 km/h - 0.00 in / 0.0 cm   Clear
9:55 AM 41.0°F / 5.0°C 41.0°F / 5.0°C 100% 30.14 in / 1020.5 hPa 10.0 miles / 16.1 kilometers NNE 4.6 mph / 7.4 km/h - 0.00 in / 0.0 cm   Clear
10:15 AM 42.8°F / 6.0°C 42.8°F / 6.0°C 100% 30.13 in / 1020.2 hPa 9.0 miles / 14.5 kilometers NE 6.9 mph / 11.1 km/h - 0.00 in / 0.0 cm   Clear
10:35 AM 44.6°F / 7.0°C 44.6°F / 7.0°C 100% 30.12 in / 1019.9 hPa 10.0 miles / 16.1 kilometers NNE 6.9 mph / 11.1 km/h - 0.00 in / 0.0 cm   Clear
10:55 AM 44.6°F / 7.0°C 44.6°F / 7.0°C 100% 30.12 in / 1019.9 hPa 10.0 miles / 16.1 kilometers NNW 8.1 mph / 13.0 km/h - 0.00 in / 0.0 cm   Clear
11:15 AM 44.6°F / 7.0°C 44.6°F / 7.0°C 100% 30.11 in / 1019.5 hPa 9.0 miles / 14.5 kilometers North 6.9 mph / 11.1 km/h - 0.00 in / 0.0 cm   Partly Cloudy
11:35 AM 42.8°F / 6.0°C 42.8°F / 6.0°C 100% 30.10 in / 1019.2 hPa 6.0 miles / 9.7 kilometers NNW 8.1 mph / 13.0 km/h - 0.00 in / 0.0 cm   Mostly Cloudy
11:55 AM 42.8°F / 6.0°C 42.8°F / 6.0°C 100% 30.08 in / 1018.5 hPa 5.0 miles / 8.0 kilometers NNW 6.9 mph / 11.1 km/h - 0.00 in / 0.0 cm   Overcast
12:15 PM 42.8°F / 6.0°C 42.8°F / 6.0°C 100% 30.07 in / 1018.2 hPa 6.0 miles / 9.7 kilometers NW 8.1 mph / 13.0 km/h - 0.00 in / 0.0 cm   Overcast
12:35 PM 42.8°F / 6.0°C 42.8°F / 6.0°C 100% 30.06 in / 1017.8 hPa 2.0 miles / 3.2 kilometers NW 11.5 mph / 18.5 km/h - 0.00 in / 0.0 cm   Overcast
1:15 PM 42.8°F / 6.0°C 42.8°F / 6.0°C 100% 30.05 in / 1017.5 hPa 2.0 miles / 3.2 kilometers NW 9.2 mph / 14.8 km/h - 0.00 in / 0.0 cm   Overcast
1:35 PM 42.8°F / 6.0°C 42.8°F / 6.0°C 100% 30.04 in / 1017.2 hPa 4.0 miles / 6.4 kilometers WNW 11.5 mph / 18.5 km/h - 0.00 in / 0.0 cm   Overcast
1:55 PM 44.6°F / 7.0°C 44.6°F / 7.0°C 100% 30.04 in / 1017.2 hPa 8.0 miles / 12.9 kilometers NW 11.5 mph / 18.5 km/h - 0.00 in / 0.0 cm   Mostly Cloudy
2:15 PM 44.6°F / 7.0°C 44.6°F / 7.0°C 100% 30.03 in / 1016.8 hPa 9.0 miles / 14.5 kilometers NW 10.4 mph / 16.7 km/h - 0.00 in / 0.0 cm   Clear
2:35 PM 46.4°F / 8.0°C 44.6°F / 7.0°C 93% 30.03 in / 1016.8 hPa 10.0 miles / 16.1 kilometers NW 9.2 mph / 14.8 km/h - 0.00 in / 0.0 cm   Clear
2:55 PM 46.4°F / 8.0°C 44.6°F / 7.0°C 93% 30.03 in / 1016.8 hPa 5.0 miles / 8.0 kilometers WNW 5.8 mph / 9.3 km/h - 0.00 in / 0.0 cm   Clear
3:15 PM 46.4°F / 8.0°C 44.6°F / 7.0°C 93% 30.03 in / 1016.8 hPa 8.0 miles / 12.9 kilometers WNW 8.1 mph / 13.0 km/h - 0.00 in / 0.0 cm   Clear
3:35 PM 44.6°F / 7.0°C 44.6°F / 7.0°C 100% 30.03 in / 1016.8 hPa 7.0 miles / 11.3 kilometers WNW 5.8 mph / 9.3 km/h - 0.00 in / 0.0 cm   Scattered Clouds
4:15 PM 42.8°F / 6.0°C 42.8°F / 6.0°C 100% 30.01 in / 1016.1 hPa 8.0 miles / 12.9 kilometers Calm Calm - 0.00 in / 0.0 cm   Clear
4:35 PM 42.8°F / 6.0°C 42.8°F / 6.0°C 100% 30.01 in / 1016.1 hPa 5.0 miles / 8.0 kilometers Calm Calm - 0.00 in / 0.0 cm   Partly Cloudy
5:15 PM 41.0°F / 5.0°C 41.0°F / 5.0°C 100% 30.00 in / 1015.8 hPa 3.0 miles / 4.8 kilometers Calm Calm - 0.00 in / 0.0 cm   Clear
5:35 PM 39.2°F / 4.0°C 39.2°F / 4.0°C 100% 30.00 in / 1015.8 hPa 0.8 miles / 1.2 kilometers Calm Calm - 0.00 in / 0.0 cm   Unknown
6:15 PM 37.4°F / 3.0°C 37.4°F / 3.0°C 100% 29.99 in / 1015.5 hPa 0.2 miles / 0.4 kilometers Calm Calm - 0.00 in / 0.0 cm   Overcast
6:35 PM 39.2°F / 4.0°C 39.2°F / 4.0°C 100% 29.99 in / 1015.5 hPa 0.5 miles / 0.8 kilometers Calm Calm - 0.00 in / 0.0 cm   Mostly Cloudy
6:55 PM 39.2°F / 4.0°C 39.2°F / 4.0°C 100% 29.99 in / 1015.5 hPa 0.8 miles / 1.2 kilometers Calm Calm - 0.00 in / 0.0 cm   Overcast
7:15 PM 39.2°F / 4.0°C 39.2°F / 4.0°C 100% 29.98 in / 1015.1 hPa 6.0 miles / 9.7 kilometers Calm Calm - 0.00 in / 0.0 cm   Mostly Cloudy
7:35 PM 39.2°F / 4.0°C 39.2°F / 4.0°C 100% 29.98 in / 1015.1 hPa 1.5 miles / 2.4 kilometers Calm Calm - 0.00 in / 0.0 cm   Mostly Cloudy
7:55 PM 39.2°F / 4.0°C 39.2°F / 4.0°C 100% 29.99 in / 1015.5 hPa 0.2 miles / 0.4 kilometers Calm Calm - 0.00 in / 0.0 cm   Overcast
8:15 PM 39.2°F / 4.0°C 39.2°F / 4.0°C 100% 29.98 in / 1015.1 hPa 3.0 miles / 4.8 kilometers Calm Calm - 0.00 in / 0.0 cm   Overcast
8:35 PM 39.2°F / 4.0°C 39.2°F / 4.0°C 100% 29.98 in / 1015.1 hPa 3.0 miles / 4.8 kilometers Calm Calm - 0.00 in / 0.0 cm   Overcast
8:55 PM 39.2°F / 4.0°C 39.2°F / 4.0°C 100% 29.97 in / 1014.8 hPa 5.0 miles / 8.0 kilometers NE 4.6 mph / 7.4 km/h - 0.00 in / 0.0 cm   Overcast
9:15 PM 39.2°F / 4.0°C 39.2°F / 4.0°C 100% 29.98 in / 1015.1 hPa 3.0 miles / 4.8 kilometers NE 4.6 mph / 7.4 km/h - 0.00 in / 0.0 cm   Overcast
9:35 PM 41.0°F / 5.0°C 41.0°F / 5.0°C 100% 29.97 in / 1014.8 hPa 0.5 miles / 0.8 kilometers NE 3.5 mph / 5.6 km/h - 0.00 in / 0.0 cm   Overcast
9:55 PM 39.2°F / 4.0°C 39.2°F / 4.0°C 100% 29.97 in / 1014.8 hPa 0.2 miles / 0.4 kilometers Calm Calm - 0.00 in / 0.0 cm   Overcast
10:15 PM 39.2°F / 4.0°C 39.2°F / 4.0°C 100% 29.96 in / 1014.4 hPa 0.2 miles / 0.4 kilometers Calm Calm - 0.00 in / 0.0 cm   Overcast
10:35 PM 39.2°F / 4.0°C 39.2°F / 4.0°C 100% 29.96 in / 1014.4 hPa 0.2 miles / 0.4 kilometers Calm Calm - 0.00 in / 0.0 cm   Overcast
11:15 PM 39.2°F / 4.0°C 39.2°F / 4.0°C 100% 29.96 in / 1014.4 hPa 0.2 miles / 0.4 kilometers NNW 3.5 mph / 5.6 km/h - 0.00 in / 0.0 cm   Overcast
11:35 PM 39.2°F / 4.0°C 39.2°F / 4.0°C 100% 29.95 in / 1014.1 hPa 0.2 miles / 0.4 kilometers Calm Calm - 0.00 in / 0.0 cm   Overcast
11:55 PM 39.2°F / 4.0°C 39.2°F / 4.0°C 100% 29.95 in / 1014.1 hPa 0.2 miles / 0.4 kilometers Calm Calm - 0.00 in / 0.0 cm   Overcast
Moon Phase
Nov. 15 Nov. 20 Nov. 28 Dec. 06 Dec. 13
Sunrise:07:18 AM (PST) Moon Rise:09:25 AM (PST)11/15
Sunset:04:29 PM (PST) Moon Set:06:21 PM (PST)11/15

Copyright © 2014 The Weather Underground, Inc.